Weather History for Trieste, Italy

Change the Weather History Date:

Tuesday, December 4, 2012

  Actual Average Record
Temperature  
Mean Temperature 42 °F -  
Max Temperature 47 °F 47 °F 59 °F (2000)
Min Temperature 38 °F 40 °F 35 °F (1998)
Degree Days  
Heating Degree Days 22    
Moisture  
Dew Point 34 °F    
Average Humidity 70    
Maximum Humidity 93    
Minimum Humidity 34    
Precipitation  
Precipitation 0.47 in 0.12 in - ()
Sea Level Pressure  
Sea Level Pressure 29.66 in    
Wind  
Wind Speed 5 mph ()    
Max Wind Speed 13 mph    
Max Gust Speed 24 mph    
Visibility 5.5 miles    
Events Rain    
Averages and records for this station are not official NWS values.
T = Trace of Precipitation, MM = Missing Value Source: Averaged Metar Reports

Daily Weather History Graph

Daily Weather History Graph

Search for Another Location

Airport:

Trip Planner

Search our weather history database for the weather conditions in past years. The results will help you decide how hot, cold, wet, or windy it might be!

Date:

Astronomy

Dec. 04, 2012 Rise Set
Actual Time 7:28 AM CET 4:21 PM CET
Civil Twilight 6:55 AM CET 4:55 PM CET
Nautical Twilight 6:17 AM CET 5:32 PM CET
Astronomical Twilight 5:41 AM CET 6:08 PM CET
Moon 10:02 PM CET (12/4) 11:04 AM CET (12/4)
Length of Visible Light 10h 00m
Length of Day
8h 52m
Waning Gibbous, 72% of the Moon is Illuminated
Dec 4
Waning Gibbous
Dec 6
Last Quarter
Dec 13
New
Dec 20
First Quarter
Dec 28
Full

Hourly Weather History & Observations

Time (CET) Temp. Windchill Dew Point Humidity Pressure Visibility Wind Dir Wind Speed Gust Speed Precip Events Conditions
12:55 AM 42.8 °F 38.6 °F 23.0 °F 46% 29.89 in - East 6.9 mph - N/A   Clear
1:00 AM 42 °F - 24 °F 36% 29.91 in 12 mi East 6.9 mph - -  
1:55 AM 42.8 °F 38.0 °F 24.8 °F 49% 29.86 in - East 8.1 mph - N/A   Clear
2:55 AM 42.8 °F 38.6 °F 24.8 °F 49% 29.86 in - East 6.9 mph - N/A   Clear
3:55 AM 42.8 °F 39.3 °F 24.8 °F 49% 29.83 in - East 5.8 mph - N/A   Clear
4:55 AM 42.8 °F 38.6 °F 24.8 °F 49% 29.80 in - East 6.9 mph - N/A   Clear
5:55 AM 42.8 °F 39.3 °F 24.8 °F 49% 29.80 in - East 5.8 mph - N/A   Clear
6:55 AM 44.6 °F 42.2 °F 26.6 °F 49% 29.77 in - ESE 4.6 mph - N/A   Clear
7:00 AM 45 °F - 26 °F 34% 29.77 in 12 mi ESE 4.6 mph - -   Mostly Cloudy
7:55 AM 44.6 °F 40.2 °F 28.4 °F 53% 29.74 in - East 8.1 mph - N/A   Clear
8:55 AM 44.6 °F - 30.2 °F 57% 29.74 in 6.2 mi ENE 2.3 mph - N/A   Scattered Clouds
9:55 AM 46.4 °F - 37.4 °F 71% 29.71 in 6.2 mi ENE 2.3 mph - N/A   Light Drizzle
10:55 AM 44.6 °F 43.1 °F 41.0 °F 87% 29.68 in 6.2 mi ENE 3.5 mph - N/A   Light Drizzle
11:55 AM 44.6 °F 43.1 °F 42.8 °F 93% 29.62 in 3.7 mi East 3.5 mph - N/A Rain Light Rain
12:55 PM 44.6 °F - 42.8 °F 93% 29.59 in 3.1 mi Calm Calm - N/A Rain Light Rain
1:00 PM 45 °F - 44 °F 93% 29.61 in 2 mi Calm Calm - - Rain Light Rain
1:55 PM 42.8 °F 39.3 °F 41.0 °F 93% 29.53 in 3.7 mi ENE 5.8 mph - N/A Rain Light Rain
2:55 PM 42.8 °F 38.6 °F 39.2 °F 87% 29.53 in 3.7 mi ENE 6.9 mph - N/A Rain Light Rain
4:55 PM 44.6 °F - 42.8 °F 93% 29.50 in 4.3 mi Calm Calm - N/A Rain Light Rain
5:55 PM 44.6 °F 42.2 °F 42.8 °F 93% 29.47 in 4.3 mi NE 4.6 mph - N/A Rain Light Rain
6:55 PM 44.6 °F 38.8 °F 42.8 °F 93% 29.47 in 4.3 mi ENE 11.5 mph 23.0 mph N/A Rain Light Rain
7:00 PM 45 °F - 42 °F 86% 29.50 in 2 mi ENE 11.5 mph - - Rain Light Rain
7:55 PM 42.8 °F 36.2 °F 35.6 °F 76% 29.50 in 6.2 mi East 12.7 mph 24.2 mph N/A Rain Light Rain
8:55 PM 42.8 °F 39.3 °F 35.6 °F 76% 29.50 in 6.2 mi SSE 5.8 mph 20.7 mph N/A Rain Light Rain
9:55 PM 44.6 °F 38.4 °F 35.6 °F 71% 29.53 in 6.2 mi East 12.7 mph - N/A Rain Light Rain
10:55 PM 42.8 °F 40.1 °F 39.2 °F 87% 29.53 in 6.2 mi East 4.6 mph - N/A   Scattered Clouds
11:55 PM 41.0 °F 37.1 °F 35.6 °F 81% 29.53 in - NNE 5.8 mph - N/A   Clear